Find KUIPER-00412

NORAD ID: 68927 Int'l Des: 2026-098J Owner: amazon-leo Country: USA Constellation: amazon-leo operational
LEOCIRCULAR

Live Position

Loading 3D Globe...

About KUIPER-00412

Description loading...

Upcoming Passes

Passes for default location (London). Set your location on the main map for personalized predictions.

Altitude History

Loading altitude history...

Two-Line Element Set

1 68927U 26098J 26125.50001156 .00000030 00000-0 11687-4 0 9991
2 68927 51.8784 273.3363 0002578 67.0164 211.3695 15.35994165 1804
Epoch: May 5, 2026 • Age: 11 hours

Current Status

Altitude 456.9 km
Velocity 7.64 km/s
Sub-Earth Point 15.60°N, 69.22°E
Type internet

Most Searched